Simultaneous Nadir Overpasses (SNOs) Predictions

Prediction of SNOs between LANDSAT-8 and METOP-A Satellite Orbit:

Table of predicted SNOs for the next 14.0 days since TLE Epoch: 10/15/2017
Index Date (LANDSAT-8) Time (LANDSAT-8) Lat,Lon (LANDSAT-8) SZA (LANDSAT-8 ) Date (METOP-A) Time (METOP-A) Lat,Lon (METOP-A) SZA (METOP-A ) Distance(km) Time Diff (sec)
1 10/16/2017 20:36:30 81.26, -86.97 93.02 10/16/2017 20:36:21 81.26, -86.79 93.04 3.01 9
2 10/16/2017 21:25:56 -81.28, 80.96 86.93 10/16/2017 21:27:00 -81.28, 81.13 86.88 2.82 64
3 10/19/2017 16:10:46 81.25, -20.71 94.02 10/19/2017 16:10:41 81.26, -20.65 94.03 1.32 5
4 10/19/2017 17:00:12 -81.27, 147.24 85.92 10/19/2017 17:01:20 -81.27, 147.28 85.89 0.71 68
5 10/22/2017 10:56:04 -80.46,-132.18 86.63 10/22/2017 10:54:50 -80.76,-133.20 86.51 37.97 74
6 10/22/2017 11:45:00 81.26, 45.88 95.05 10/22/2017 11:44:59 81.26, 45.86 95.05 0.31 1
7 10/22/2017 12:34:26 -81.28,-146.14 84.89 10/22/2017 12:35:38 -81.27,-146.20 84.87 1.15 72
8 10/25/2017 06:29:50 -81.24, -55.62 84.03 10/25/2017 06:28:39 -81.24, -55.71 84.07 1.56 71
9 10/25/2017 07:19:15 81.26, 112.43 96.05 10/25/2017 07:19:18 81.26, 112.34 96.04 1.51 3
10 10/28/2017 02:04:05 -81.25, 10.91 83.05 10/28/2017 02:02:58 -81.24, 10.76 83.10 2.56 67




NCC Satellite Simultaneous Nadir Overpasses (SNOs) Prediction Service
